| time (UTC) | temp F | wind direction | speed MPH | gust MPH | rain 1hr in | rain 24hr in | rain mn in | humidity % | barometer mb |
| 20260901124546 | 75 | 0 | 0.0 | 1.0 | 0.00 | 0.00 | 0.00 | 75 | 1020.1 |
| 20260901123055 | 74 | 0 | 0.0 | 0.0 | 0.00 | 0.00 | 0.00 | 77 | 1019.8 |
| 20260901121600 | 73 | 0 | 0.0 | 0.0 | 0.00 | 0.00 | 0.00 | 79 | 1019.7 |
| 20260901120045 | 73 | 0 | 0.0 | 0.0 | 0.00 | 0.00 | 0.00 | 79 | 1019.4 |
| 20260901114545 | 73 | 0 | 0.0 | 0.0 | 0.00 | 0.00 | 0.00 | 78 | 1019.4 |
| 20260901113058 | 73 | 0 | 0.0 | 0.0 | 0.00 | 0.00 | 0.00 | 77 | 1019.2 |
| 20260901111548 | 73 | 0 | 0.0 | 0.0 | 0.00 | 0.00 | 0.00 | 76 | 1019.2 |
| 20260901110100 | 74 | 0 | 0.0 | 0.0 | 0.00 | 0.00 | 0.00 | 75 | 1019.0 |
| 20260901104555 | 75 | 0 | 0.0 | 1.0 | 0.00 | 0.00 | 0.00 | 73 | 1018.9 |
| 20260901103047 | 75 | 0 | 0.0 | 1.0 | 0.00 | 0.00 | 0.00 | 72 | 1018.8 |
| 20260901101557 | 75 | 141 | 0.0 | 1.0 | 0.00 | 0.00 | 0.00 | 73 | 1018.8 |
| 20260901100057 | 75 | 126 | 0.0 | 2.0 | 0.00 | 0.00 | 0.00 | 72 | 1018.7 |
| 20260901094559 | 75 | 131 | 1.0 | 2.0 | 0.00 | 0.00 | 0.00 | 72 | 1018.6 |
| 20260901093052 | 75 | 111 | 1.0 | 2.0 | 0.00 | 0.00 | 0.00 | 72 | 1018.6 |
| 20260901091545 | 75 | 0 | 0.0 | 1.0 | 0.00 | 0.00 | 0.00 | 72 | 1018.4 |
| 20260901090056 | 75 | 145 | 0.0 | 1.0 | 0.00 | 0.00 | 0.00 | 72 | 1018.4 |
| 20260901084602 | 75 | 0 | 1.0 | 2.0 | 0.00 | 0.00 | 0.00 | 72 | 1018.4 |
| 20260901083047 | 74 | 0 | 0.0 | 1.0 | 0.00 | 0.00 | 0.00 | 74 | 1018.3 |
| 20260901081556 | 74 | 127 | 0.0 | 1.0 | 0.00 | 0.00 | 0.00 | 74 | 1018.4 |
| 20260901080052 | 74 | 0 | 0.0 | 1.0 | 0.00 | 0.00 | 0.00 | 73 | 1018.2 |
| 20260901074559 | 74 | 0 | 0.0 | 1.0 | 0.00 | 0.00 | 0.00 | 72 | 1018.2 |
| 20260901073059 | 75 | 0 | 0.0 | 1.0 | 0.00 | 0.00 | 0.00 | 72 | 1018.2 |
| 20260901071556 | 74 | 0 | 0.0 | 1.0 | 0.00 | 0.00 | 0.00 | 72 | 1018.3 |
| 20260901070058 | 74 | 118 | 1.0 | 2.0 | 0.00 | 0.00 | 0.00 | 74 | 1018.3 |
| 20260901064555 | 72 | 0 | 0.0 | 0.0 | 0.00 | 0.00 | 0.00 | 77 | 1018.3 |
| 20260901063105 | 72 | 0 | 0.0 | 0.0 | 0.00 | 0.00 | 0.00 | 76 | 1018.5 |
| 20260901061556 | 73 | 0 | 0.0 | 0.0 | 0.00 | 0.00 | 0.00 | 76 | 1018.4 |
| 20260901060055 | 74 | 0 | 0.0 | 0.0 | 0.00 | 0.00 | 0.00 | 74 | 1018.5 |
| 20260901054553 | 75 | 0 | 0.0 | 0.0 | 0.00 | 0.00 | 0.00 | 72 | 1018.4 |
| 20260901053053 | 76 | 0 | 0.0 | 0.0 | 0.00 | 0.00 | 0.00 | 70 | 1018.4 |
| 20260901051613 | 77 | 0 | 0.0 | 1.0 | 0.00 | 0.00 | 0.00 | 67 | 1018.4 |
| 20260901050052 | 79 | 0 | 0.0 | 1.0 | 0.00 | 0.00 | 0.00 | 65 | 1018.3 |
| 20260901044555 | 79 | 0 | 0.0 | 2.0 | 0.00 | 0.00 | 0.00 | 64 | 1018.1 |
| 20260901043058 | 79 | 0 | 0.0 | 2.0 | 0.00 | 0.00 | 0.00 | 63 | 1018.1 |
| 20260901041555 | 79 | 129 | 0.0 | 1.0 | 0.00 | 0.00 | 0.00 | 64 | 1018.1 |
| 20260901040054 | 79 | 0 | 0.0 | 1.0 | 0.00 | 0.00 | 0.00 | 63 | 1018.2 |
| 20260901034600 | 78 | 126 | 0.0 | 1.0 | 0.00 | 0.00 | 0.00 | 64 | 1018.0 |
| 20260901033105 | 79 | 0 | 0.0 | 2.0 | 0.00 | 0.00 | 0.00 | 65 | 1017.9 |
| 20260901031555 | 78 | 139 | 1.0 | 3.0 | 0.00 | 0.00 | 0.00 | 65 | 1017.8 |
| 20260901030049 | 77 | 0 | 0.0 | 0.0 | 0.00 | 0.00 | 0.00 | 68 | 1017.7 |
| 20260901024555 | 77 | 0 | 0.0 | 1.0 | 0.00 | 0.00 | 0.00 | 68 | 1017.5 |
| 20260901023053 | 78 | 0 | 0.0 | 0.0 | 0.00 | 0.00 | 0.00 | 67 | 1017.4 |
| 20260901021549 | 79 | 0 | 0.0 | 0.0 | 0.00 | 0.00 | 0.00 | 65 | 1017.1 |
| 20260901020053 | 80 | 0 | 0.0 | 0.0 | 0.00 | 0.00 | 0.00 | 64 | 1017.0 |
| 20260901014601 | 81 | 0 | 0.0 | 0.0 | 0.00 | 0.00 | 0.00 | 62 | 1016.7 |
| 20260901013055 | 82 | 0 | 0.0 | 0.0 | 0.00 | 0.00 | 0.00 | 60 | 1016.6 |
| 20260901011556 | 84 | 0 | 0.0 | 0.0 | 0.00 | 0.00 | 0.00 | 57 | 1016.5 |
| 20260901010056 | 87 | 0 | 0.0 | 0.0 | 0.00 | 0.00 | 0.00 | 54 | 1016.3 |
| 20260901004609 | 89 | 0 | 0.0 | 0.0 | 0.00 | 0.00 | 0.00 | 47 | 1016.2 |
| 20260901003045 | 93 | 0 | 0.0 | 0.0 | 0.00 | 0.00 | 0.00 | 41 | 1016.1 |
| 20260901001605 | 94 | 0 | 0.0 | 2.0 | 0.00 | 0.00 | 0.00 | 39 | 1016.1 |
| 20260901000104 | 96 | 246 | 1.0 | 5.0 | 0.00 | 0.00 | 0.00 | 37 | 1016.1 |
| 20260831234548 | 96 | 245 | 1.0 | 5.0 | 0.00 | 0.00 | 0.00 | 36 | 1016.0 |
| 20260831233047 | 97 | 247 | 1.0 | 6.0 | 0.00 | 0.00 | 0.00 | 36 | 1016.1 |
| 20260831231603 | 98 | 182 | 3.0 | 12.0 | 0.00 | 0.00 | 0.00 | 35 | 1016.0 |
| 20260831230057 | 99 | 211 | 2.0 | 6.0 | 0.00 | 0.00 | 0.00 | 34 | 1016.0 |
| 20260831224604 | 99 | 285 | 3.0 | 7.0 | 0.00 | 0.00 | 0.00 | 34 | 1016.1 |
| 20260831223046 | 100 | 291 | 3.0 | 8.0 | 0.00 | 0.00 | 0.00 | 33 | 1016.1 |
| 20260831221545 | 100 | 240 | 1.0 | 6.0 | 0.00 | 0.00 | 0.00 | 33 | 1016.1 |
| 20260831220054 | 100 | 238 | 4.0 | 12.0 | 0.00 | 0.00 | 0.00 | 33 | 1016.4 |
| 20260831214547 | 100 | 258 | 4.0 | 6.0 | 0.00 | 0.00 | 0.00 | 33 | 1016.4 |
| 20260831213046 | 100 | 215 | 3.0 | 10.0 | 0.00 | 0.00 | 0.00 | 35 | 1016.4 |
| 20260831211553 | 100 | 244 | 4.0 | 10.0 | 0.00 | 0.00 | 0.00 | 35 | 1016.5 |
| 20260831210049 | 100 | 248 | 4.0 | 8.0 | 0.00 | 0.00 | 0.00 | 35 | 1016.6 |
| 20260831204545 | 100 | 171 | 3.0 | 12.0 | 0.00 | 0.00 | 0.00 | 34 | 1016.8 |
| 20260831203045 | 100 | 318 | 3.0 | 12.0 | 0.00 | 0.00 | 0.00 | 34 | 1017.0 |
| 20260831201545 | 100 | 111 | 3.0 | 9.0 | 0.00 | 0.00 | 0.00 | 34 | 1017.3 |
| 20260831200058 | 100 | 276 | 2.0 | 9.0 | 0.00 | 0.00 | 0.00 | 35 | 1017.5 |
| 20260831194638 | 101 | 300 | 3.0 | 9.0 | 0.00 | 0.00 | 0.00 | 34 | 1017.7 |
| 20260831193051 | 101 | 321 | 2.0 | 6.0 | 0.00 | 0.00 | 0.00 | 33 | 1017.8 |
| 20260831191544 | 100 | 253 | 2.0 | 9.0 | 0.00 | 0.00 | 0.00 | 35 | 1017.9 |
| 20260831190117 | 99 | 122 | 4.0 | 10.0 | 0.00 | 0.00 | 0.00 | 35 | 1018.1 |
| 20260831184559 | 99 | 275 | 3.0 | 10.0 | 0.00 | 0.00 | 0.00 | 35 | 1018.1 |
| 20260831183057 | 99 | 0 | 2.0 | 8.0 | 0.00 | 0.00 | 0.00 | 38 | 1018.3 |
| 20260831181600 | 99 | 208 | 3.0 | 7.0 | 0.00 | 0.00 | 0.00 | 37 | 1018.5 |
| 20260831180056 | 98 | 211 | 4.0 | 14.0 | 0.00 | 0.00 | 0.00 | 37 | 1018.7 |
| 20260831174546 | 98 | 265 | 4.0 | 11.0 | 0.00 | 0.00 | 0.00 | 38 | 1018.8 |
| 20260831173056 | 98 | 269 | 4.0 | 10.0 | 0.00 | 0.00 | 0.00 | 40 | 1018.9 |
| 20260831171555 | 97 | 178 | 2.0 | 11.0 | 0.00 | 0.00 | 0.00 | 43 | 1019.1 |
| 20260831170054 | 96 | 170 | 3.0 | 9.0 | 0.00 | 0.00 | 0.00 | 44 | 1019.3 |
| 20260831164554 | 95 | 333 | 3.0 | 10.0 | 0.00 | 0.00 | 0.00 | 46 | 1019.5 |
| 20260831163054 | 95 | 231 | 3.0 | 8.0 | 0.00 | 0.00 | 0.00 | 46 | 1019.6 |
| 20260831161559 | 93 | 307 | 5.0 | 10.0 | 0.00 | 0.00 | 0.00 | 47 | 1019.7 |
| 20260831160051 | 93 | 239 | 2.0 | 12.0 | 0.00 | 0.00 | 0.00 | 49 | 1019.6 |
| 20260831154616 | 91 | 245 | 4.0 | 11.0 | 0.00 | 0.00 | 0.00 | 51 | 1019.6 |
| 20260831153112 | 91 | 248 | 2.0 | 9.0 | 0.00 | 0.00 | 0.00 | 53 | 1019.6 |
| 20260831151559 | 89 | 269 | 4.0 | 10.0 | 0.00 | 0.00 | 0.00 | 54 | 1019.6 |
| 20260831150054 | 88 | 228 | 3.0 | 11.0 | 0.00 | 0.00 | 0.00 | 57 | 1019.6 |
| 20260831144548 | 87 | 277 | 2.0 | 10.0 | 0.00 | 0.00 | 0.00 | 57 | 1019.4 |
| 20260831143055 | 86 | 256 | 3.0 | 8.0 | 0.00 | 0.00 | 0.00 | 58 | 1019.4 |
| 20260831141558 | 85 | 179 | 3.0 | 10.0 | 0.00 | 0.00 | 0.00 | 60 | 1019.4 |
| 20260831140052 | 83 | 243 | 4.0 | 8.0 | 0.00 | 0.00 | 0.00 | 62 | 1019.4 |
| 20260831134613 | 82 | 224 | 2.0 | 5.0 | 0.00 | 0.00 | 0.00 | 64 | 1019.3 |
| 20260831133059 | 81 | 259 | 2.0 | 4.0 | 0.00 | 0.00 | 0.00 | 65 | 1019.4 |
| 20260831131600 | 79 | 242 | 1.0 | 5.0 | 0.00 | 0.00 | 0.00 | 67 | 1019.2 |
| 20260831130051 | 77 | 243 | 0.0 | 2.0 | 0.00 | 0.00 | 0.00 | 69 | 1019.0 |